TimeHST,TemperatureF,Dew PointF,Humidity,Sea Level PressureIn,VisibilityMPH,Wind Direction,Wind SpeedMPH,Gust SpeedMPH,PrecipitationIn,Events,Conditions,WindDirDegrees,DateUTC
12:53 AM,71.1,63.0,75,29.99,10.0,South,9.2,17.3,N/A,,Mostly Cloudy,190,2012-12-24 10:53:00
1:53 AM,69.1,62.1,78,29.97,10.0,South,4.6,-,N/A,,Mostly Cloudy,170,2012-12-24 11:53:00
2:53 AM,69.1,64.9,87,29.96,10.0,SE,5.8,-,N/A,,Overcast,140,2012-12-24 12:53:00
3:53 AM,69.1,66.0,90,29.96,10.0,South,3.5,-,0.00,,Overcast,170,2012-12-24 13:53:00
4:15 AM,69.1,64.9,87,29.97,10.0,SW,3.5,-,N/A,,Overcast,220,2012-12-24 14:15:00
4:39 AM,69.1,66.0,90,29.98,9.0,South,3.5,-,N/A,,Overcast,190,2012-12-24 14:39:00
4:53 AM,68.0,64.9,90,29.97,7.0,WSW,3.5,-,0.00,Rain,Light Rain,240,2012-12-24 14:53:00
5:31 AM,68.0,64.9,90,29.98,3.0,SW,3.5,-,0.05,Rain,Rain,230,2012-12-24 15:31:00
5:53 AM,68.0,66.0,93,29.98,7.0,WSW,3.5,-,0.09,Rain,Light Rain,250,2012-12-24 15:53:00
6:53 AM,66.9,64.0,90,30.01,9.0,SSW,8.1,-,0.00,Rain,Light Rain,210,2012-12-24 16:53:00
7:53 AM,66.9,64.0,90,30.02,10.0,SW,5.8,-,0.03,Rain,Light Rain,230,2012-12-24 17:53:00
8:51 AM,69.8,66.2,88,30.04,10.0,SW,4.6,-,0.00,,Overcast,220,2012-12-24 18:51:00
8:53 AM,70.0,66.9,90,30.04,10.0,SSW,3.5,-,0.00,,Overcast,210,2012-12-24 18:53:00
9:02 AM,70.0,66.9,90,30.04,10.0,South,4.6,-,N/A,,Overcast,190,2012-12-24 19:02:00
9:19 AM,71.1,68.0,90,30.03,10.0,South,3.5,-,N/A,,Overcast,180,2012-12-24 19:19:00
9:53 AM,70.0,66.0,87,30.04,2.5,SSW,10.4,-,0.00,Rain,Light Rain,200,2012-12-24 19:53:00
10:51 AM,71.6,68.0,88,30.03,2.5,WSW,6.9,-,0.03,Rain,Rain,240,2012-12-24 20:51:00
10:53 AM,71.1,68.0,90,30.02,2.5,WSW,6.9,-,0.04,Rain,Light Rain,250,2012-12-24 20:53:00
11:00 AM,72.0,68.0,87,30.02,3.0,WSW,8.1,-,0.00,Rain,Rain,250,2012-12-24 21:00:00
11:05 AM,71.1,68.0,90,30.02,2.0,SW,9.2,-,0.01,Rain,Rain,230,2012-12-24 21:05:00
11:12 AM,71.1,68.0,90,30.02,1.0,WSW,8.1,-,0.07,Rain,Heavy Rain,250,2012-12-24 21:12:00
11:33 AM,71.1,69.1,93,30.01,2.0,SSW,4.6,-,0.25,Rain,Light Rain,200,2012-12-24 21:33:00
11:53 AM,73.0,69.1,87,30.00,-9999.0,WSW,3.5,-,0.26,,Overcast,240,2012-12-24 21:53:00
12:00 PM,73.0,70.0,90,30.00,10.0,SSW,4.6,-,0.00,Rain,Light Rain,200,2012-12-24 22:00:00
12:36 PM,73.0,70.0,90,29.98,10.0,SSE,8.1,-,0.00,,Overcast,150,2012-12-24 22:36:00
12:53 PM,73.9,69.1,85,29.97,9.0,SE,12.7,-,0.01,Rain,Light Rain,140,2012-12-24 22:53:00
1:25 PM,73.9,69.1,85,29.95,10.0,SE,11.5,-,0.00,Rain,Light Rain,140,2012-12-24 23:25:00
1:35 PM,73.9,68.0,82,29.95,10.0,SE,16.1,21.9,0.00,,Overcast,140,2012-12-24 23:35:00
1:53 PM,75.0,69.1,82,29.94,10.0,SE,15.0,25.3,0.00,Rain,Light Rain,140,2012-12-24 23:53:00
2:53 PM,72.0,66.0,81,29.95,10.0,South,8.1,-,0.02,,Overcast,180,2012-12-25 00:53:00
3:53 PM,75.0,68.0,79,29.95,10.0,SE,6.9,-,N/A,,Overcast,140,2012-12-25 01:53:00
4:23 PM,73.9,68.0,82,29.97,10.0,South,4.6,-,0.00,,Overcast,170,2012-12-25 02:23:00
4:36 PM,73.9,69.1,85,29.97,4.0,Calm,Calm,-,0.00,Rain,Light Rain,0,2012-12-25 02:36:00
4:42 PM,73.9,69.1,85,29.97,1.8,SW,4.6,-,0.02,Rain,Rain,230,2012-12-25 02:42:00
4:51 PM,73.4,69.8,88,29.98,3.0,SSE,5.8,-,0.11,Rain,Rain,160,2012-12-25 02:51:00
4:53 PM,73.0,69.1,87,29.98,2.0,Variable,5.8,-,0.11,Rain,Rain,0,2012-12-25 02:53:00
5:00 PM,72.0,69.1,91,29.98,1.8,SW,3.5,-,0.05,Rain,Rain,220,2012-12-25 03:00:00
5:04 PM,72.0,69.1,91,29.98,3.0,WSW,3.5,-,0.06,Rain,Light Rain,240,2012-12-25 03:04:00
5:13 PM,72.0,69.1,91,29.98,7.0,South,5.8,-,0.06,Rain,Light Rain,180,2012-12-25 03:13:00
5:44 PM,72.0,68.0,87,29.99,2.5,West,8.1,-,0.10,Rain,Light Rain,260,2012-12-25 03:44:00
5:46 PM,72.0,68.0,87,29.99,3.0,WSW,8.1,-,0.11,Rain,Light Rain,250,2012-12-25 03:46:00
5:53 PM,71.1,68.0,90,29.99,3.0,WSW,6.9,-,0.11,Rain,Rain,240,2012-12-25 03:53:00
5:56 PM,71.1,68.0,90,30.00,1.5,WSW,8.1,-,0.01,Rain,Heavy Rain,250,2012-12-25 03:56:00
6:05 PM,71.1,68.0,90,30.00,3.0,West,3.5,-,0.20,Rain,Heavy Rain,280,2012-12-25 04:05:00
6:38 PM,71.1,69.1,93,30.01,2.0,Variable,3.5,-,0.36,Rain,Heavy Rain,0,2012-12-25 04:38:00
6:53 PM,71.1,69.1,93,30.02,2.0,Variable,4.6,-,0.49,Rain,Heavy Rain,0,2012-12-25 04:53:00
7:02 PM,71.1,69.1,93,30.03,4.0,SW,6.9,-,0.02,Rain,Light Rain,230,2012-12-25 05:02:00
7:24 PM,71.1,69.1,93,30.04,8.0,Variable,3.5,-,0.05,Rain,Light Rain,0,2012-12-25 05:24:00
7:50 PM,69.8,66.2,88,30.05,5.0,WNW,8.1,-,0.07,Rain,Rain,290,2012-12-25 05:50:00
7:53 PM,70.0,66.9,90,30.05,5.0,West,8.1,-,0.10,Rain,Light Rain,280,2012-12-25 05:53:00
8:10 PM,70.0,66.9,90,30.06,7.0,Variable,4.6,-,0.04,Rain,Light Rain,0,2012-12-25 06:10:00
8:41 PM,71.1,66.9,87,30.06,5.0,West,6.9,-,0.11,Rain,Rain,270,2012-12-25 06:41:00
8:53 PM,71.1,66.9,87,30.06,8.0,WSW,4.6,-,0.12,Rain,Light Rain,240,2012-12-25 06:53:00
9:14 PM,71.1,66.9,87,30.07,7.0,SW,4.6,-,0.07,Rain,Light Rain,220,2012-12-25 07:14:00
9:33 PM,71.1,68.0,90,30.07,2.5,WSW,6.9,-,0.09,Rain,Heavy Rain,240,2012-12-25 07:33:00
9:51 PM,71.6,68.0,88,30.07,6.0,West,9.2,-,0.23,Rain,Light Rain,270,2012-12-25 07:51:00
9:53 PM,71.1,68.0,90,30.07,8.0,West,9.2,-,0.23,Rain,Light Rain,270,2012-12-25 07:53:00
10:48 PM,69.8,66.2,88,30.09,1.8,SW,10.4,-,0.13,Rain,Heavy Rain,220,2012-12-25 08:48:00
10:53 PM,70.0,66.9,90,30.08,1.0,SW,5.8,-,0.25,Rain,Heavy Rain,220,2012-12-25 08:53:00
11:05 PM,70.0,68.0,93,30.09,2.5,Variable,4.6,-,0.26,Rain,Heavy Rain,0,2012-12-25 09:05:00
11:39 PM,70.0,66.9,90,30.08,4.0,Variable,3.5,-,0.60,Rain,Heavy Rain,0,2012-12-25 09:39:00
11:53 PM,69.1,66.0,90,30.09,2.0,West,5.8,-,0.72,Rain,Heavy Rain,280,2012-12-25 09:53:00